Preview of NWS' New Version of Forecast
This preview is not operational and should not be used for support decisions.

Regional Weather Roundup (RWR)

Issued by National Weather Service (NWS)

                            
000
ASPQ40 PGUM 220510
RWRPQ 
WEATHER ROUNDUP FOR THE MARIANAS AND MICRONESIA
NATIONAL WEATHER SERVICE TIYAN GU
300 PM CHST THU AUG 22 2019

GUZ001>004-220600-
MARIANA ISLANDS-
  
CITY           SKY/WX    TMP DP  RH WIND       PRES   REMARKS
GUAM AIRPORT   PTSUNNY   86  75  70 N13       29.81F HX  95           
ANDERSEN AFB   PTSUNNY   84  77  79 NE5       29.82F HX  94           
ROTA AIRPORT   MOSUNNY   86  75  70 N16       29.78F HX  95           
TINIAN AP      MOSUNNY   90  77  66 E14       29.79F HX 102           
SAIPAN AP      MOSUNNY   90  75  62 NE14      29.80F HX 100           

$$

PMZ161-220600-
REPUBLIC OF PALAU-
  
CITY           SKY/WX    TMP DP  RH WIND       PRES   REMARKS
KOROR AP       PTSUNNY   86  77  74 W13       29.77F HX  97           
KOROR WSO      NOT AVBL                                               

$$

PMZ171>174-220600-
FEDERATED STATES OF MICRONESIA-
  
CITY           SKY/WX    TMP DP  RH WIND       PRES   REMARKS
YAP AIRPORT    MOSUNNY   84  77  79 CALM      29.79F HX  94           
CHUUK AP       LGT RAIN  82  81  94 S7        29.71  HX  95           
POHNPEI AP     NOT AVBL                                               
POHNPEI WSO    CLOUDY    86  75  70 SE8       29.76S HX  95           
KOSRAE AP      NOT AVBL                                               

$$

PMZ181-220600-
REPUBLIC OF THE MARSHALL ISLANDS-
  
CITY           SKY/WX    TMP DP  RH WIND       PRES   REMARKS
KWAJALEIN AP   MOSUNNY   84  79  84 NE7       29.78R HX  96           
MAJURO AP      NOT AVBL                                               
MAJURO WSO     PTSUNNY   82  77  83 CALM      29.75S HX  91           

$$